Stations météo

Publicité
Alanya, Turquie (17310): Température de l'air & dewpoint: 16.09.2018 06:00:00 - 22.09.2018 06:00:00 (EEST)Alanya, Turquie (17310): Vitesse du vent: 16.09.2018 06:00:00 - 22.09.2018 06:00:00 (EEST)Alanya, Turquie (17310): Direction du vent: 16.09.2018 06:00:00 - 22.09.2018 06:00:00 (EEST)Alanya, Turquie (17310): reduced air pressure: 16.09.2018 06:00:00 - 22.09.2018 06:00:00 (EEST)Alanya, Turquie (17310): visibility: 16.09.2018 06:00:00 - 22.09.2018 06:00:00 (EEST)
Date & Time tt [°C] td [°C] ff [km/h] ff [knt] dd ppp [hPa] vv [km]
22.09.2018 06:00:00 24,5 14,9 5 3 E 1011,7 20
22.09.2018 05:00:00 - - - - - - -
22.09.2018 04:00:00 - - - - - - -
22.09.2018 03:00:00 24,9 15,3 2 1 NE 1011,5 20
22.09.2018 02:00:00 - - - - - - -
22.09.2018 01:00:00 - - - - - - -
22.09.2018 00:00:00 25,8 16,4 2 1 ENE 1012,2 20
21.09.2018 23:00:00 - - - - - - -
21.09.2018 22:00:00 - - - - - - -
21.09.2018 21:00:00 26,5 18,7 4 2 ENE 1011,9 20
21.09.2018 20:00:00 27,5 21,8 4 2 W 1011,5 20
21.09.2018 19:00:00 28,4 22,0 4 2 WSW 1011,2 20
21.09.2018 18:00:00 30,5 22,8 4 2 WSW 1010,8 20
21.09.2018 17:00:00 31,9 22,7 5 3 SW 1010,8 20
21.09.2018 16:00:00 32,5 21,1 5 3 SW 1010,8 20
21.09.2018 15:00:00 32,3 23,1 5 3 SSW 1011,0 20
21.09.2018 14:00:00 32,4 22,3 5 3 SSW 1011,4 20
21.09.2018 13:00:00 32,6 23,4 8 4 S 1011,6 20
21.09.2018 12:00:00 32,3 24,2 8 4 S 1011,7 20
21.09.2018 11:00:00 31,7 23,1 8 4 S 1011,6 20
21.09.2018 10:00:00 31,0 17,3 4 2 E 1011,2 20
21.09.2018 09:00:00 27,8 16,4 5 3 ENE 1010,7 20
21.09.2018 08:00:00 - - - - - - -
21.09.2018 07:00:00 - - - - - - -
21.09.2018 06:00:00 - - - - - - -
21.09.2018 05:00:00 - - - - - - -
21.09.2018 04:00:00 - - - - - - -
21.09.2018 03:00:00 - - - - - - -
21.09.2018 02:00:00 - - - - - - -
21.09.2018 01:00:00 - - - - - - -
21.09.2018 00:00:00 - - - - - - -
20.09.2018 23:00:00 - - - - - - -
20.09.2018 22:00:00 - - - - - - -
20.09.2018 21:00:00 27,2 20,6 2 1 SW 1010,3 20
20.09.2018 20:00:00 27,9 21,5 2 1 SW 1009,9 20
20.09.2018 19:00:00 28,7 22,5 2 1 SW 1009,8 20
20.09.2018 18:00:00 31,5 23,7 4 2 SSW 1009,8 20
20.09.2018 17:00:00 32,4 24,8 5 3 SSW 1009,8 20
20.09.2018 16:00:00 32,8 25,0 8 4 SSW 1009,9 20
20.09.2018 15:00:00 32,9 24,2 8 4 SSW 1010,1 20
20.09.2018 14:00:00 32,7 23,5 8 4 SSW 1010,3 20
20.09.2018 13:00:00 33,2 21,8 8 4 SSW 1010,7 20
20.09.2018 12:00:00 33,3 20,1 8 4 S 1010,9 20
20.09.2018 11:00:00 33,2 22,4 4 2 SSE 1011,1 20
20.09.2018 10:00:00 33,6 19,3 2 1 NE 1010,7 20
20.09.2018 09:00:00 29,6 12,4 4 2 NE 1010,4 20
20.09.2018 08:00:00 - - - - - - -
20.09.2018 07:00:00 - - - - - - -
20.09.2018 06:00:00 - - - - - - -
20.09.2018 05:00:00 - - - - - - -
20.09.2018 04:00:00 - - - - - - -
20.09.2018 03:00:00 - - - - - - -
20.09.2018 02:00:00 - - - - - - -
20.09.2018 01:00:00 - - - - - - -
20.09.2018 00:00:00 - - - - - - -
19.09.2018 23:00:00 - - - - - - -
19.09.2018 22:00:00 - - - - - - -
19.09.2018 21:00:00 27,7 21,8 0 0 N 1010,5 20
19.09.2018 20:00:00 27,6 21,5 2 1 WSW 1010,0 20
19.09.2018 19:00:00 29,7 22,3 2 1 SSW 1009,7 20
19.09.2018 18:00:00 33,3 22,2 4 2 SSW 1009,7 20
19.09.2018 17:00:00 33,6 22,8 5 3 SSW 1009,5 20
19.09.2018 16:00:00 34,2 20,6 4 2 SSW 1009,7 20
19.09.2018 15:00:00 34,3 20,3 5 3 N 1009,9 20
19.09.2018 14:00:00 33,9 19,2 5 3 S 1010,4 20
19.09.2018 13:00:00 33,4 19,8 5 3 SSW 1010,7 20
19.09.2018 12:00:00 33,6 20,0 5 3 SSW 1011,0 20
19.09.2018 11:00:00 34,0 13,9 5 3 W 1011,1 20
19.09.2018 10:00:00 34,2 16,5 4 2 W 1011,1 20
19.09.2018 09:00:00 31,1 8,7 4 2 N 1010,7 20
19.09.2018 08:00:00 - - - - - - -
19.09.2018 07:00:00 - - - - - - -
19.09.2018 06:00:00 - - - - - - -
19.09.2018 05:00:00 - - - - - - -
19.09.2018 04:00:00 - - - - - - -
19.09.2018 03:00:00 - - - - - - -
19.09.2018 02:00:00 - - - - - - -
19.09.2018 01:00:00 - - - - - - -
19.09.2018 00:00:00 - - - - - - -
18.09.2018 23:00:00 - - - - - - -
18.09.2018 22:00:00 - - - - - - -
18.09.2018 21:00:00 28,0 11,4 2 1 E 1009,9 20
18.09.2018 20:00:00 28,3 12,5 2 1 ENE 1009,5 20
18.09.2018 19:00:00 30,1 20,1 2 1 SSW 1009,1 20
18.09.2018 18:00:00 33,2 20,0 2 1 SW 1009,1 20
18.09.2018 17:00:00 34,5 17,6 4 2 SSW 1009,1 20
18.09.2018 16:00:00 33,9 19,5 5 3 WSW 1009,0 20
18.09.2018 15:00:00 34,3 19,1 8 4 WSW 1009,4 20
18.09.2018 14:00:00 33,7 19,4 4 2 WSW 1009,6 20
18.09.2018 13:00:00 33,6 18,5 8 4 W 1009,5 20
18.09.2018 12:00:00 33,6 18,1 8 4 W 1009,7 20
18.09.2018 11:00:00 35,2 8,8 8 4 E 1010,0 20
18.09.2018 10:00:00 33,6 9,5 5 3 ENE 1010,0 20
18.09.2018 09:00:00 31,7 8,6 5 3 ENE 1009,8 20
18.09.2018 08:00:00 - - - - - - -
18.09.2018 07:00:00 - - - - - - -
18.09.2018 06:00:00 - - - - - - -
18.09.2018 05:00:00 - - - - - - -
18.09.2018 04:00:00 - - - - - - -
18.09.2018 03:00:00 - - - - - - -
18.09.2018 02:00:00 - - - - - - -
18.09.2018 01:00:00 - - - - - - -
18.09.2018 00:00:00 - - - - - - -
17.09.2018 23:00:00 - - - - - - -
17.09.2018 22:00:00 - - - - - - -
17.09.2018 21:00:00 28,2 15,8 2 1 NE 1010,0 20
17.09.2018 20:00:00 28,8 17,0 4 2 ENE 1009,8 20
17.09.2018 19:00:00 30,0 18,1 2 1 ESE 1009,6 20
17.09.2018 18:00:00 33,3 19,0 4 2 S 1009,6 20
17.09.2018 17:00:00 33,4 19,5 8 4 SSW 1009,7 20
17.09.2018 16:00:00 34,3 19,9 8 4 SSW 1010,0 20
17.09.2018 15:00:00 33,8 16,6 5 3 SW 1010,3 20
17.09.2018 14:00:00 34,0 18,0 4 2 SW 1010,8 20
17.09.2018 13:00:00 33,9 19,2 5 3 WSW 1011,0 20
17.09.2018 12:00:00 - - - - - - -
17.09.2018 11:00:00 35,4 8,2 8 4 E 1011,0 20
17.09.2018 10:00:00 33,6 8,2 8 4 ENE 1011,0 20
17.09.2018 09:00:00 30,6 9,4 5 3 NNE 1010,9 20
17.09.2018 08:00:00 25,6 8,4 4 2 NNE 1010,7 20
17.09.2018 07:00:00 25,8 8,6 4 2 NE 1010,6 20
17.09.2018 06:00:00 24,3 10,1 4 2 NE 1010,5 20
17.09.2018 05:00:00 23,8 13,7 2 1 NNE 1010,5 20
17.09.2018 04:00:00 24,2 14,6 4 2 NE 1010,7 20
17.09.2018 03:00:00 24,5 12,4 2 1 ENE 1010,9 20
17.09.2018 02:00:00 25,1 12,6 2 1 ENE 1011,4 20
17.09.2018 01:00:00 25,1 15,8 2 1 NE 1011,8 20
17.09.2018 00:00:00 25,5 18,5 0 0 N 1012,2 20
16.09.2018 23:00:00 25,9 18,4 0 0 N 1012,4 20
16.09.2018 22:00:00 26,4 17,8 2 1 ENE 1012,6 20
16.09.2018 21:00:00 26,9 20,6 2 1 NW 1012,7 20
16.09.2018 20:00:00 27,7 20,9 4 2 W 1012,3 20
16.09.2018 19:00:00 28,5 21,1 4 2 SSW 1012,0 20
16.09.2018 18:00:00 31,1 22,0 4 2 S 1011,5 20
16.09.2018 17:00:00 31,8 22,3 5 3 S 1011,6 20
16.09.2018 16:00:00 32,5 22,1 5 3 S 1011,8 20
16.09.2018 15:00:00 32,1 22,0 8 4 SSW 1012,1 20
16.09.2018 14:00:00 32,1 21,1 8 4 SSW 1012,4 20
16.09.2018 13:00:00 32,1 20,1 8 4 S 1012,6 20
16.09.2018 12:00:00 32,1 20,1 5 3 SSW 1012,8 20
16.09.2018 11:00:00 31,5 21,8 8 4 S 1012,9 20
16.09.2018 10:00:00 31,5 20,8 4 2 ESE 1012,8 20
16.09.2018 09:00:00 28,8 17,4 4 2 ENE 1012,7 20
16.09.2018 08:00:00 25,4 12,6 4 2 ENE 1012,4 20
16.09.2018 07:00:00 24,1 12,7 2 1 ENE 1012,3 20
16.09.2018 06:00:00 24,4 12,7 4 2 ENE 1012,1 20

tt = Température de l'air
td = dewpoint
ff = Vitesse du vent
dd = Direction du vent
ppp = reduced air pressure
vv = visibility

stations d'obs. à proximité